Vorticity
10 6 -1 1 8 9 8 10 7 11 12 7 6 5 9 11 10 9 7 7 7 6
12 11 -1 -4 12 11 12 10 10 6 7 8 8 7 8 13 10 9 8 8 6 6
39 0 8 -2 4 3 17 16 4 11 9 9 6 6 9 12 11 10 9 7 6 5
44 14 0 -6 2 5 11 2 13 8 10 8 6 7 11 9 9 10 10 7 5 5
15 6 29 15 -3 -2 2 -2 11 -2 10 8 7 6 12 11 11 11 8 5 5 6
78 10 13 18 40 34 20 32 6 8 6 8 6 6 12 12 11 7 5 7 6 7
51 46 5 4 11 18 16 18 26 24 5 7 4 7 12 12 7 7 7 8 6 7
7 53 89 -12 13 19 18 19 14 28 12 10 5 8 12 7 9 8 5 6 6 8
22 20 37 52 -7 42 11 19 18 10 17 11 5 15 8 9 7 6 4 8 7 8
18 19 32 63 -18 29 8 17 18 10 20 17 16 10 9 7 2 8 7 6 7 8
13 39 38 63 -14 -38 45 15 13 10 15 15 14 14 7 6 5 7 4 6 9 9
5 22 30 56 32 -23 55 21 13 9 9 15 16 6 6 5 5 2 5 8 10 11
1 12 24 29 49 -11 41 24 9 13 12 18 5 3 1 0 0 6 7 10 11 9
9 18 12 14 80 33 -8 19 13 10 17 8 4 -1 -1 -0 2 3 3 8 10 7
Height
5703 5705 5707 5712 5718 5723 5729 5734 5736 5739 5740 5741 5744 5748 5751 5754 5755 5756 5758 5760 5762 5764
5675 5678 5683 5687 5694 5701 5707 5714 5720 5722 5724 5726 5730 5734 5737 5741 5743 5744 5747 5750 5751 5753
5643 5646 5653 5660 5667 5675 5684 5690 5701 5707 5708 5711 5715 5720 5724 5728 5730 5733 5736 5739 5741 5742
5607 5613 5621 5628 5638 5648 5657 5666 5678 5690 5692 5694 5701 5707 5711 5714 5717 5722 5725 5728 5730 5732
5574 5583 5591 5599 5608 5619 5631 5639 5653 5670 5676 5678 5686 5693 5699 5703 5707 5711 5715 5717 5720 5721
5547 5552 5567 5578 5586 5593 5604 5614 5628 5647 5660 5662 5671 5680 5685 5690 5695 5700 5705 5707 5709 5710
5532 5532 5539 5555 5568 5576 5584 5595 5605 5625 5642 5646 5655 5666 5672 5678 5684 5691 5694 5697 5700 5701
5521 5518 5518 5532 5547 5559 5569 5578 5588 5604 5622 5629 5641 5652 5659 5667 5673 5679 5684 5688 5690 5691
5509 5506 5506 5514 5531 5540 5555 5564 5575 5588 5602 5614 5628 5639 5647 5654 5661 5668 5674 5677 5680 5681
5499 5497 5496 5499 5519 5525 5540 5551 5564 5576 5587 5602 5615 5626 5635 5643 5651 5659 5665 5667 5669 5671
5488 5486 5485 5487 5502 5513 5525 5539 5552 5565 5577 5591 5603 5614 5625 5634 5643 5650 5655 5658 5660 5661
5479 5476 5472 5477 5488 5503 5512 5528 5541 5555 5569 5582 5593 5605 5614 5625 5635 5641 5646 5648 5650 5651
5471 5469 5467 5467 5477 5490 5501 5517 5530 5545 5560 5573 5585 5595 5605 5617 5625 5632 5636 5639 5641 5643
5462 5460 5461 5462 5468 5479 5494 5508 5521 5537 5551 5565 5577 5586 5597 5608 5617 5624 5628 5631 5633 5636